STARLINK-4769 (53843 NORAD) Tracking and Keplerian Element Data

This shows tracking and keplerian element data for the satellite.

Feedback or suggestion? Click here.




ElementValue
Catalog53843
NameSTARLINK-4769
Epoch Orbit130
Epoch Day324.91667824
Epoch Year2022
RAAN307.6879
Inclination53.2175
Eccentricity0.0001215
Argument of Perigee88.461
Mean Anonmoly102.9221
Mean Motion15.67202805
Decay Rate-0.01138638
L11 53843U 22114AB 22324.91667824 -.01138638 00000+0 -11497-1 0 9993
L22 53843 53.2175 307.6879 0001215 88.4610 102.9221 15.67202805 1301



Live tracking and technical data element details for STARLINK-4769 (NORAD 53843). STARLINK-4769 can be tracked NOW for your location showing map with azimuth and elevation plus other details from your city location.







IsCatalogInMostPopularTable: catalog: 53843, numindb: -1

Insert: records affected: 1


GetName: 53843 STARLINK-4769

Hit Count: inserted at: Thu, 08 Dec 2022 08:43:41 GMT